Tracking 19574 objects as of 16-Feb-2019
HD Live streaming from Space Station
objects crossing your sky now

NATO 3B

Track NATO 3B now!
NATO 3B is classified as:


NORAD ID: 9785
Int'l Code: 1977-005A
Perigee: 37,040.0 km
Apogee: 37,474.0 km
Inclination: 13.4 °
Period: 1,511.5 minutes
Semi major axis: 43628 km
RCS: 8.6584 m2 (large)
Launch date: January 28, 1977
Source: North Atlantic Treaty Organization (NATO)
Launch site: AIR FORCE EASTERN TEST RANGE (AFETR)
aabbcc
Your satellite tracking list
Your tracking list is empty




NASA's NSSDC Master Catalog

Two Line Element Set (TLE):
1  9785U 77005A   19047.12250634 -.00000132  00000-0  00000+0 0  9998
2  9785  13.4460 330.3919 0049742 346.8419 199.2231  0.95269700 91283
Source of the keplerian elements: AFSPC